Tiempo cada hora Al Marfa

Hoy, 31 Julio, Sábado

Tiempo Temperatura Precipitaciones Viento Presión Humedad
00:00 +36°C° 0 mm 3 mps 747 mmHg 67%
01:00 +36°C° 0 mm 2 mps 746 mmHg 67%
02:00 +35°C° 0 mm 2 mps 746 mmHg 67%
03:00 +34°C° 0 mm 1 mps 746 mmHg 67%
04:00 +34°C° 0 mm 1 mps 746 mmHg 67%
05:00 +34°C° 0 mm 1 mps 747 mmHg 66%
06:00 +34°C° 0 mm 1 mps 747 mmHg 65%
07:00 +34°C° 0 mm 1 mps 747 mmHg 63%
08:00 +38°C° 0 mm 2 mps 748 mmHg 52%
09:00 +40°C° 0 mm 2 mps 748 mmHg 41%
10:00 +41°C° 0 mm 2 mps 748 mmHg 34%
11:00 +43°C° 0 mm 3 mps 748 mmHg 30%
12:00 +44°C° 0 mm 3 mps 748 mmHg 27%
13:00 +45°C° 0 mm 4 mps 747 mmHg 24%
14:00 +46°C° 0 mm 5 mps 747 mmHg 24%
15:00 +46°C° 0 mm 5 mps 747 mmHg 25%
16:00 +46°C° 0 mm 6 mps 747 mmHg 26%
17:00 +43°C° 0 mm 5 mps 747 mmHg 33%
18:00 +42°C° 0 mm 4 mps 748 mmHg 39%
19:00 +39°C° 0 mm 3 mps 748 mmHg 45%
20:00 +39°C° 0 mm 3 mps 748 mmHg 46%
21:00 +38°C° 0 mm 2 mps 748 mmHg 46%
22:00 +38°C° 0 mm 2 mps 749 mmHg 47%
23:00 +38°C° 0 mm 2 mps 748 mmHg 45%

Mañana, 1 Agosto, Domingo

Tiempo Temperatura Precipitaciones Viento Presión Humedad
00:00 +38°C° 0 mm 3 mps 748 mmHg 43%
01:00 +38°C° 0 mm 3 mps 748 mmHg 42%
02:00 +37°C° 0 mm 3 mps 748 mmHg 44%
03:00 +36°C° 0 mm 3 mps 747 mmHg 47%
04:00 +36°C° 0 mm 3 mps 747 mmHg 50%
05:00 +36°C° 0 mm 3 mps 748 mmHg 47%
06:00 +37°C° 0 mm 2 mps 748 mmHg 44%
07:00 +37°C° 0 mm 2 mps 748 mmHg 41%
08:00 +39°C° 0 mm 2 mps 748 mmHg 34%
09:00 +42°C° 0 mm 3 mps 748 mmHg 26%
10:00 +45°C° 0 mm 3 mps 748 mmHg 19%
11:00 +46°C° 0 mm 3 mps 748 mmHg 17%
12:00 +47°C° 0 mm 3 mps 748 mmHg 15%
13:00 +48°C° 0 mm 2 mps 747 mmHg 14%
14:00 +48°C° 0 mm 3 mps 747 mmHg 14%
15:00 +48°C° 0 mm 3 mps 747 mmHg 15%
16:00 +49°C° 0 mm 4 mps 746 mmHg 16%
17:00 +47°C° 0 mm 4 mps 746 mmHg 20%
18:00 +44°C° 0 mm 4 mps 746 mmHg 25%
19:00 +43°C° 0 mm 4 mps 746 mmHg 29%
20:00 +42°C° 0 mm 3 mps 746 mmHg 34%
21:00 +40°C° 0 mm 3 mps 746 mmHg 40%
22:00 +39°C° 0 mm 3 mps 747 mmHg 45%
23:00 +38°C° 0 mm 2 mps 746 mmHg 45%

Pasado mañana, 2 Agosto, Lunes

Tiempo Temperatura Precipitaciones Viento Presión Humedad
00:00 +37°C° 0 mm 1 mps 746 mmHg 45%
01:00 +36°C° 0 mm 1 mps 746 mmHg 45%
02:00 +36°C° 0 mm 1 mps 746 mmHg 44%
03:00 +37°C° 0 mm 2 mps 745 mmHg 44%
04:00 +37°C° 0 mm 2 mps 745 mmHg 43%
05:00 +37°C° 0 mm 2 mps 746 mmHg 39%
06:00 +38°C° 0 mm 2 mps 746 mmHg 35%
07:00 +38°C° 0 mm 2 mps 746 mmHg 31%
08:00 +40°C° 0 mm 2 mps 746 mmHg 27%
09:00 +42°C° 0 mm 1 mps 746 mmHg 22%
10:00 +44°C° 0 mm 1 mps 747 mmHg 18%
11:00 +46°C° 0 mm 2 mps 746 mmHg 16%
12:00 +47°C° 0 mm 3 mps 746 mmHg 15%
13:00 +49°C° 0 mm 4 mps 746 mmHg 13%
14:00 +48°C° 0 mm 5 mps 746 mmHg 16%
15:00 +47°C° 0 mm 5 mps 746 mmHg 18%
16:00 +46°C° 0 mm 5 mps 746 mmHg 21%
17:00 +45°C° 0 mm 5 mps 746 mmHg 25%
18:00 +43°C° 0 mm 4 mps 746 mmHg 29%
19:00 +40°C° 0 mm 3 mps 746 mmHg 33%
20:00 +40°C° 0 mm 3 mps 746 mmHg 37%
21:00 +39°C° 0 mm 3 mps 746 mmHg 41%
22:00 +38°C° 0 mm 3 mps 747 mmHg 45%
23:00 +38°C° 0 mm 3 mps 746 mmHg 46%

3 Agosto, Martes

Tiempo Temperatura Precipitaciones Viento Presión Humedad
00:00 +38°C° 0 mm 3 mps 746 mmHg 47%
01:00 +37°C° 0 mm 3 mps 746 mmHg 48%
02:00 +37°C° 0 mm 3 mps 746 mmHg 50%
03:00 +37°C° 0 mm 3 mps 746 mmHg 52%
04:00 +36°C° 0 mm 3 mps 746 mmHg 54%
05:00 +36°C° 0 mm 2 mps 746 mmHg 51%
06:00 +37°C° 0 mm 2 mps 747 mmHg 48%
07:00 +37°C° 0 mm 2 mps 747 mmHg 45%
08:00 +39°C° 0 mm 2 mps 747 mmHg 38%
09:00 +40°C° 0 mm 2 mps 748 mmHg 31%
10:00 +42°C° 0 mm 1 mps 748 mmHg 25%
11:00 +43°C° 0 mm 2 mps 748 mmHg 24%
12:00 +45°C° 0 mm 3 mps 748 mmHg 24%
13:00 +45°C° 0 mm 4 mps 747 mmHg 24%
14:00 +46°C° 0 mm 5 mps 747 mmHg 25%
15:00 +46°C° 0 mm 5 mps 747 mmHg 26%
16:00 +45°C° 0 mm 5 mps 747 mmHg 28%
17:00 +43°C° 0 mm 4 mps 747 mmHg 31%
18:00 +42°C° 0 mm 4 mps 747 mmHg 35%
19:00 +40°C° 0 mm 3 mps 747 mmHg 39%
20:00 +39°C° 0 mm 3 mps 747 mmHg 42%
21:00 +38°C° 0 mm 2 mps 748 mmHg 46%
22:00 +38°C° 0 mm 2 mps 748 mmHg 49%
23:00 +37°C° 0 mm 2 mps 748 mmHg 51%

4 Agosto, Miércoles

Tiempo Temperatura Precipitaciones Viento Presión Humedad
00:00 +37°C° 0 mm 2 mps 748 mmHg 53%
01:00 +37°C° 0 mm 2 mps 748 mmHg 56%
02:00 +36°C° 0 mm 2 mps 748 mmHg 55%
03:00 +35°C° 0 mm 1 mps 748 mmHg 55%
04:00 +35°C° 0 mm 1 mps 748 mmHg 55%
05:00 +35°C° 0 mm 1 mps 748 mmHg 52%
06:00 +36°C° 0 mm 1 mps 749 mmHg 48%
07:00 +36°C° 0 mm 1 mps 749 mmHg 44%
08:00 +39°C° 0 mm 1 mps 749 mmHg 39%
09:00 +41°C° 0 mm 1 mps 749 mmHg 34%
10:00 +43°C° 0 mm 1 mps 750 mmHg 28%
11:00 +43°C° 0 mm 2 mps 749 mmHg 27%
12:00 +45°C° 0 mm 4 mps 749 mmHg 26%
13:00 +47°C° 0 mm 5 mps 749 mmHg 25%
14:00 +46°C° 0 mm 5 mps 749 mmHg 26%
15:00 +46°C° 0 mm 5 mps 749 mmHg 27%
16:00 +45°C° 0 mm 5 mps 748 mmHg 28%
17:00 +43°C° 0 mm 5 mps 748 mmHg 33%
18:00 +42°C° 0 mm 5 mps 748 mmHg 37%
19:00 +41°C° 0 mm 4 mps 748 mmHg 42%
20:00 +40°C° 0 mm 4 mps 749 mmHg 44%
21:00 +39°C° 0 mm 3 mps 749 mmHg 47%
22:00 +38°C° 0 mm 3 mps 749 mmHg 50%
23:00 +38°C° 0 mm 2 mps 749 mmHg 50%

5 Agosto, Jueves

Tiempo Temperatura Precipitaciones Viento Presión Humedad
00:00 +38°C° 0 mm 2 mps 749 mmHg 51%
01:00 +37°C° 0 mm 2 mps 748 mmHg 51%
02:00 +37°C° 0 mm 2 mps 748 mmHg 49%
03:00 +37°C° 0 mm 2 mps 748 mmHg 48%
04:00 +37°C° 0 mm 2 mps 748 mmHg 46%
05:00 +37°C° 0 mm 2 mps 748 mmHg 45%
06:00 +36°C° 0 mm 1 mps 749 mmHg 44%
07:00 +37°C° 0 mm 1 mps 749 mmHg 43%
08:00 +40°C° 0 mm 1 mps 749 mmHg 36%
09:00 +42°C° 0 mm 1 mps 749 mmHg 29%
10:00 +44°C° 0 mm 1 mps 749 mmHg 21%
11:00 +46°C° 0 mm 2 mps 749 mmHg 20%
12:00 +47°C° 0 mm 3 mps 748 mmHg 19%
13:00 +49°C° 0 mm 4 mps 748 mmHg 17%
14:00 +48°C° 0 mm 4 mps 748 mmHg 18%
15:00 +48°C° 0 mm 5 mps 747 mmHg 20%
16:00 +47°C° 0 mm 5 mps 747 mmHg 21%
17:00 +46°C° 0 mm 5 mps 747 mmHg 26%
18:00 +43°C° 0 mm 4 mps 747 mmHg 30%
19:00 +42°C° 0 mm 4 mps 747 mmHg 35%
20:00 +41°C° 0 mm 4 mps 748 mmHg 42%
21:00 +40°C° 0 mm 4 mps 748 mmHg 48%
22:00 +38°C° 0 mm 4 mps 748 mmHg 54%
23:00 +38°C° 0 mm 3 mps 748 mmHg 56%
Mostrar más

Necesitamos Su Consentimiento

Meteoprog y nuestros Proveedores de Servicios pueden almacenar y acceder a sus datos personales como cookies, identificadores de dispositivo u otras tecnologías similares de su dispositivo y procesar dichos datos para personalizar contenido y anuncios, además de ofrecer funciones de redes sociales y analizar el tráfico.

  • Almacenar y/o acceder a información en su dispositivo

    Se puede almacenar o acceder a cookies, identificadores de dispositivo u otra información de su dispositivo para los fines anteriormente indicados.

  • Anuncios y contenido personalizados, medición de anuncios y contenido, percepciones del público, y desarrollo de productos

    Los anuncios y el contenido pueden personalizarse en base a su perfil. Se pueden añadir más datos para personalizar mejor los anuncios y contenidos. Se puede medir el rendimiento de los anuncios y contenidos. Se puede obtener la percepción sobre el público que ha visto los anuncios y contenidos. Dichos datos pueden usarse para desarrollar o mejorar la experiencia del usuario, sistemas y software.

Al hacer clic en ‘Estoy De Acuerdo’ usted permitirá el uso de las cookies, identificadores de dispositivo, balizas web u otras tecnologías similares indicadas. Su configuración puede cambiarse desde el navegador de su dispositivo.

Para ciertos fines, los intereses legítimos pueden ser considerados por encima del consentimiento. Puede leer más sobre ello en nuestra Política de Privacidad y Cookies.